This demonstration page uses our WeatherBlox Daily Observations layout. Learn more.

Left ArrowRight Arrow

53.62937, 11.41316

Hourly Observations for January 9, 2022

Temp ( °F °C ) Dew Point ( °F °C ) Humidity (%) Winds ( mph kmh ) Pressure ( in mb ) Visibility ( mi km ) Precip ( " mm )
12:20 am 00:20 Cloudy 36 2 28 -2 75 75 SSE 9 15 29.36 994 30 48 N/A
12:50 am 00:50 Cloudy 36 2 28 -2 75 75 SSE 10 17 29.33 993 30 48 N/A
1:20 am 01:20 Cloudy 36 2 30 -1 81 81 SSE 9 15 29.33 993 30 48 N/A
1:50 am 01:50 Cloudy 36 2 30 -1 81 81 SSE 9 15 29.30 992 30 48 N/A
2:20 am 02:20 Mostly Cloudy 36 2 30 -1 81 81 SE 10 17 29.30 992 30 48 N/A
2:50 am 02:50 Cloudy 36 2 30 -1 81 81 SSE 10 17 29.30 992 30 48 N/A
3:20 am 03:20 Mostly Cloudy 36 2 30 -1 81 81 SSE 10 17 29.27 991 30 48 N/A
3:50 am 03:50 Mostly Cloudy 36 2 30 -1 81 81 SE 10 17 29.27 991 30 48 N/A
4:20 am 04:20 Cloudy 36 2 30 -1 81 81 SE 10 17 29.27 991 30 48 N/A
4:50 am 04:50 Cloudy 36 2 30 -1 81 81 SSE 9 15 29.27 991 30 48 N/A
5:20 am 05:20 Mostly Cloudy 36 2 30 -1 81 81 SE 9 15 29.27 991 30 48 N/A
5:50 am 05:50 Mostly Cloudy 36 2 30 -1 81 81 SE 8 13 29.27 991 30 48 N/A
6:20 am 06:20 Mostly Cloudy 36 2 30 -1 81 81 SE 8 13 29.27 991 30 48 N/A
6:50 am 06:50 Mostly Cloudy 36 2 30 -1 81 81 SE 8 13 29.27 991 30 48 N/A
7:20 am 07:20 Mostly Clear 34 1 32 0 93 93 SE 9 15 29.27 991 6 9 N/A
7:50 am 07:50 Mostly Cloudy with Light Snow 34 1 32 0 93 93 SSE 7 11 29.30 992 4 6 N/A
8:20 am 08:20 Mostly Cloudy with Light Snow 34 1 32 0 93 93 SE 8 13 29.30 992 4 7 N/A
8:50 am 08:50 Mostly Cloudy with Light Snow 34 1 32 0 93 93 SE 7 11 29.30 992 30 48 N/A
9:20 am 09:20 Mostly Cloudy with Light Rain 34 1 32 0 93 93 SSE 7 11 29.30 992 30 48 N/A
9:50 am 09:50 Mostly Cloudy 34 1 32 0 93 93 SSE 7 11 29.33 993 30 48 N/A
10:20 am 10:20 Mostly Cloudy with Light Rain 34 1 32 0 93 93 SE 8 13 29.33 993 30 48 N/A
10:50 am 10:50 Mostly Cloudy with Light Snow 34 1 32 0 93 93 SE 8 13 29.33 993 30 48 N/A
11:20 am 11:20 Mostly Cloudy with Light Snow 34 1 32 0 93 93 SE 8 13 29.33 993 30 48 N/A
11:50 am 11:50 Mostly Cloudy with Light Rain 34 1 34 1 100 100 SE 9 15 29.33 993 30 48 N/A
12:20 pm 12:20 Mostly Cloudy with Light Rain 36 2 34 1 93 93 SE 9 15 29.36 994 30 48 N/A
12:50 pm 12:50 Cloudy with Light Rain 36 2 34 1 93 93 SE 8 13 29.36 994 30 48 N/A
1:20 pm 13:20 Cloudy with Drizzle 36 2 34 1 93 93 SE 6 9 29.36 994 4 6 N/A
1:50 pm 13:50 Mostly Cloudy with Drizzle 36 2 34 1 93 93 SE 7 11 29.36 994 4 6 N/A
2:50 pm 14:50 Mostly Cloudy with Light Rain 36 2 34 1 93 93 SE 6 9 29.39 995 6 9 N/A
3:20 pm 15:20 Mostly Cloudy with Light Rain 36 2 34 1 93 93 SSE 5 7 29.41 996 30 48 N/A
4:20 pm 16:20 Mostly Cloudy with Light Rain 36 2 34 1 93 93 VRB 2 4 29.44 997 30 48 N/A
4:50 pm 16:50 Mostly Cloudy with Light Wintry Mix 34 1 34 1 100 100 Calm 29.44 997 30 48 N/A
5:20 pm 17:20 Mostly Cloudy with Light Wintry Mix 34 1 34 1 100 100 Calm 29.47 998 30 48 N/A
5:50 pm 17:50 Mostly Cloudy with Light Wintry Mix 34 1 32 0 93 93 WNW 2 4 29.50 999 3 5 N/A
6:20 pm 18:20 Mostly Cloudy with Snow 32 0 32 0 100 100 VRB 1 2 29.50 999 2 4 N/A
6:50 pm 18:50 Mostly Cloudy with Light Rain/Snow 32 0 32 0 100 100 Calm 29.53 1000 2 4 N/A
7:20 pm 19:20 Mostly Cloudy with Light Rain 32 0 32 0 100 100 VRB 1 2 29.53 1000 2 4 N/A
7:50 pm 19:50 Mostly Cloudy with Light Rain 32 0 32 0 100 100 Calm 29.56 1001 2 4 N/A
8:20 pm 20:20 Mostly Cloudy with Light Wintry Mix 32 0 32 0 100 100 Calm 29.56 1001 2 4 N/A
8:50 pm 20:50 Mostly Cloudy with Light Rain 32 0 32 0 100 100 Calm 29.59 1002 3 4 N/A
9:20 pm 21:20 Mostly Cloudy 34 1 32 0 93 93 WSW 3 6 29.62 1003 3 4 N/A
9:50 pm 21:50 Mostly Cloudy 34 1 32 0 93 93 W 1 2 29.62 1003 3 5 N/A
10:20 pm 22:20 Mostly Cloudy 34 1 32 0 93 93 VRB 2 4 29.65 1004 2 4 N/A
10:50 pm 22:50 Mostly Cloudy 34 1 32 0 93 93 VRB 1 2 29.65 1004 2 4 N/A
11:20 pm 23:20 Mostly Cloudy 34 1 32 0 93 93 VRB 1 2 29.68 1005 2 3 N/A
11:50 pm 23:50 Mostly Clear 34 1 32 0 93 93 Calm 29.71 1006 2 3 N/A

Powered by AerisWeather